ニート彗星

246P/NEAT (2021)

English version
Home page
Updated on July 9, 2019

---------------------------------------------------------------------

・ プロフィール

・ 写真集

・ 軌道要素

Epoch 2021 Mar. 7.0 TT = JDT 2459280.5
T 2021 Feb. 22.81686 TT                                 MPCW
q   2.8639222            (2000.0)            P               Q
n   0.12245325     Peri.  176.29990     -0.25557188     +0.92828732
a   4.0162664      Node    78.74751     -0.89393261     -0.12049312
e   0.2869193      Incl.   15.98680     -0.36819493     -0.35180116
P   8.05
From 2763 observations 2003 Feb. 1-2019 May 4, mean residual 0".5.

・ 星図

・ 光度変化

        m1 = -17.5 + 5 logΔ + 50   log r(t - 200)  [    ,-460]  (              〜2019年11月20日)
        m1 =   0.0 + 5 logΔ + 25.0 log r(t + 85)   [-460, 130]  (2019年11月20日〜2021年 7月 2日)
        m1 =   5.2 + 5 logΔ + 15.0 log r           [ 130,    ]  (2021年 7月 2日〜              )

---------------------------------------------------------------------

軌道要素はM.P.E.C. 2019-J142に掲載されたものです。
星図はステラナビゲータ Ver.10 (アストロアーツ) で作成したものです。
光度グラフはComet for Windowsで作成したものです。

---------------------------------------------------------------------

Copyright(C) Seiichi Yoshida (comet@aerith.net). All rights reserved.